QPF
0.02 0.05 0.06 0.07 0.06 0.05 0.03 0.05 0.03 0.02 0.03 0.03 0.02 0.02 0.01 0.01 0.02 0.02 0.01 0.02 0.03 0.02 0.04 0.07 0.08 0.05 0.04 0.06 0.05 0.05 0.06 0.08 0.11 0.10 0.07 0.07 0.07 0.05 0.05 0.05 0.06 0.06 0.07 0.07 0.06 0.08 0.08 0.09 0.10
0.01 0.04 0.06 0.07 0.07 0.05 0.02 0.02 0.03 0.03 0.03 0.03 0.02 0.02 0.01 0.01 0.02 0.03 0.03 0.04 0.03 0.04 0.05 0.09 0.11 0.08 0.08 0.10 0.07 0.06 0.07 0.09 0.12 0.13 0.11 0.09 0.08 0.07 0.07 0.05 0.06 0.07 0.08 0.08 0.08 0.10 0.15 0.16 0.16
0.01 0.02 0.03 0.03 0.04 0.04 0.04 0.04 0.06 0.04 0.02 0.01 0.01 0.01 0.01 0.01 0.02 0.04 0.06 0.07 0.04 0.04 0.05 0.10 0.11 0.12 0.14 0.13 0.10 0.09 0.09 0.12 0.19 0.27 0.19 0.12 0.11 0.10 0.09 0.06 0.05 0.07 0.08 0.08 0.11 0.16 0.13 0.10 0.10
0.02 0.03 0.02 0.02 0.03 0.03 0.03 0.04 0.05 0.03 0.02 0.01 0.01 0.01 0.01 0.02 0.03 0.04 0.06 0.06 0.04 0.04 0.04 0.08 0.11 0.13 0.16 0.13 0.10 0.12 0.14 0.17 0.22 0.36 0.28 0.14 0.10 0.07 0.06 0.05 0.04 0.06 0.08 0.08 0.08 0.07 0.05 0.06 0.08
0.02 0.02 0.02 0.02 0.03 0.03 0.03 0.03 0.04 0.03 0.02 0.02 0.01 0.01 0.02 0.03 0.03 0.03 0.03 0.03 0.03 0.04 0.04 0.05 0.11 0.15 0.14 0.11 0.09 0.10 0.14 0.13 0.15 0.24 0.17 0.12 0.09 0.08 0.08 0.08 0.04 0.04 0.05 0.05 0.05 0.04 0.06 0.07 0.09
0.02 0.03 0.03 0.05 0.05 0.04 0.05 0.06 0.06 0.04 0.02 0.01 0.01 0.01 0.02 0.03 0.02 0.01 0.01 0.01 0.03 0.04 0.04 0.04 0.09 0.15 0.13 0.12 0.13 0.12 0.10 0.11 0.12 0.11 0.11 0.11 0.09 0.09 0.09 0.09 0.06 0.07 0.06 0.05 0.06 0.05 0.05 0.06 0.07
0.04 0.05 0.06 0.05 0.04 0.05 0.05 0.03 0.03 0.04 0.02 0.01 0.01 0.01 0.02 0.03 0.02 0.01 0.01 0.03 0.05 0.06 0.05 0.05 0.06 0.11 0.11 0.11 0.12 0.14 0.12 0.11 0.11 0.09 0.11 0.09 0.10 0.09 0.09 0.09 0.08 0.08 0.07 0.06 0.06 0.07 0.06 0.06 0.06
0.04 0.06 0.05 0.04 0.03 0.03 0.03 0.02 0.03 0.04 0.03 0.02 0.01 0.02 0.03 0.02 0.02 0.02 0.04 0.06 0.08 0.08 0.06 0.04 0.07 0.08 0.09 0.13 0.10 0.12 0.14 0.13 0.11 0.10 0.12 0.12 0.09 0.08 0.07 0.08 0.09 0.10 0.09 0.08 0.07 0.06 0.06 0.06 0.07
0.03 0.03 0.03 0.03 0.03 0.03 0.03 0.02 0.02 0.02 0.02 0.01 0.01 0.01 0.02 0.02 0.03 0.04 0.06 0.05 0.07 0.07 0.06 0.04 0.09 0.09 0.13 0.17 0.12 0.12 0.14 0.16 0.15 0.14 0.14 0.12 0.09 0.07 0.04 0.06 0.09 0.09 0.08 0.07 0.07 0.06 0.07 0.09 0.12
0.03 0.03 0.01 0.01 0.01 0.02 0.03 0.03 0.03 0.03 0.03 0.02 0.01 0.02 0.01 0.01 0.04 0.06 0.06 0.05 0.06 0.09 0.09 0.06 0.08 0.09 0.18 0.23 0.16 0.14 0.11 0.11 0.11 0.08 0.10 0.07 0.05 0.04 0.03 0.05 0.08 0.08 0.06 0.06 0.07 0.07 0.08 0.10 0.14
0.02 0.01 0.00 0.00 0.01 0.01 0.02 0.03 0.03 0.04 0.03 0.02 0.01 0.01 0.01 0.02 0.03 0.05 0.05 0.04 0.04 0.06 0.08 0.08 0.07 0.10 0.15 0.14 0.14 0.10 0.07 0.06 0.08 0.07 0.07 0.04 0.03 0.03 0.03 0.04 0.07 0.05 0.05 0.06 0.07 0.08 0.07 0.09 0.14
0.00 0.00 0.00 0.00 0.01 0.01 0.03 0.04 0.03 0.02 0.02 0.03 0.01 0.01 0.03 0.06 0.05 0.05 0.04 0.03 0.03 0.03 0.06 0.08 0.10 0.13 0.10 0.06 0.05 0.04 0.03 0.06 0.08 0.07 0.05 0.03 0.02 0.02 0.02 0.02 0.05 0.03 0.03 0.05 0.06 0.07 0.07 0.10 0.12
0.00 0.00 0.00 0.00 0.01 0.01 0.02 0.03 0.03 0.03 0.02 0.02 0.02 0.02 0.07 0.11 0.08 0.07 0.06 0.05 0.03 0.03 0.05 0.08 0.11 0.10 0.08 0.06 0.05 0.03 0.04 0.07 0.10 0.07 0.06 0.03 0.02 0.02 0.02 0.02 0.02 0.02 0.02 0.03 0.06 0.09 0.09 0.12 0.14
0.01 0.00 0.00 0.00 0.00 0.01 0.01 0.02 0.03 0.02 0.02 0.02 0.02 0.02 0.02 0.03 0.02 0.02 0.02 0.02 0.02 0.03 0.05 0.09 0.09 0.07 0.08 0.08 0.06 0.04 0.06 0.08 0.08 0.07 0.08 0.05 0.05 0.05 0.04 0.03 0.02 0.02 0.02 0.03 0.04 0.06 0.08 0.11 0.13
0.01 0.00 0.00 0.00 0.01 0.01 0.01 0.01 0.01 0.02 0.02 0.01 0.02 0.01 0.01 0.01 0.00 0.01 0.01 0.01 0.01 0.03 0.06 0.09 0.08 0.09 0.13 0.11 0.05 0.05 0.07 0.07 0.06 0.06 0.05 0.04 0.05 0.05 0.06 0.05 0.05 0.03 0.03 0.03 0.04 0.05 0.05 0.08 0.12
0.00 0.01 0.00 0.00 0.00 0.01 0.01 0.01 0.01 0.01 0.01 0.01 0.01 0.01 0.00 0.00 0.00 0.00 0.00 0.02 0.03 0.02 0.03 0.07 0.07 0.09 0.14 0.15 0.09 0.07 0.05 0.04 0.04 0.04 0.04 0.05 0.06 0.06 0.06 0.06 0.06 0.06 0.06 0.06 0.06 0.07 0.08 0.09 0.09
0.00 0.00 0.00 0.00 0.01 0.01 0.02 0.01 0.01 0.02 0.02 0.02 0.01 0.01 0.01 0.01 0.01 0.01 0.01 0.02 0.02 0.01 0.02 0.04 0.06 0.07 0.09 0.09 0.07 0.05 0.03 0.02 0.02 0.02 0.03 0.05 0.06 0.06 0.04 0.04 0.04 0.05 0.06 0.07 0.08 0.09 0.09 0.07 0.06
0.01 0.01 0.01 0.01 0.01 0.01 0.01 0.01 0.01 0.02 0.01 0.01 0.01 0.01 0.01 0.01 0.01 0.01 0.01 0.01 0.01 0.01 0.02 0.03 0.04 0.05 0.05 0.04 0.03 0.03 0.02 0.02 0.02 0.01 0.01 0.03 0.03 0.04 0.04 0.05 0.05 0.05 0.05 0.05 0.06 0.06 0.06 0.05 0.05
0.01 0.01 0.01 0.01 0.01 0.01 0.01 0.02 0.02 0.02 0.01 0.01 0.02 0.01 0.01 0.01 0.01 0.01 0.01 0.01 0.01 0.01 0.01 0.02 0.03 0.05 0.04 0.03 0.03 0.02 0.02 0.02 0.02 0.02 0.01 0.02 0.03 0.04 0.04 0.03 0.02 0.02 0.02 0.03 0.04 0.05 0.05 0.05 0.04
0.01 0.00 0.01 0.01 0.00 0.00 0.01 0.01 0.01 0.02 0.02 0.02 0.02 0.02 0.01 0.01 0.01 0.00 0.01 0.01 0.01 0.01 0.01 0.01 0.02 0.04 0.04 0.03 0.03 0.01 0.01 0.01 0.02 0.02 0.02 0.02 0.02 0.02 0.02 0.02 0.02 0.02 0.02 0.02 0.02 0.03 0.03 0.04 0.04
0.01 0.00 0.00 0.01 0.00 0.00 0.01 0.01 0.01 0.02 0.02 0.03 0.02 0.02 0.02 0.01 0.01 0.01 0.01 0.01 0.01 0.01 0.01 0.01 0.01 0.02 0.02 0.02 0.02 0.01 0.01 0.02 0.02 0.03 0.02 0.02 0.02 0.02 0.02 0.02 0.02 0.01 0.01 0.01 0.01 0.02 0.02 0.03 0.03
0.00 0.00 0.00 0.01 0.00 0.00 0.00 0.00 0.01 0.02 0.03 0.03 0.03 0.02 0.02 0.01 0.01 0.01 0.01 0.01 0.01 0.01 0.01 0.01 0.01 0.01 0.01 0.01 0.01 0.01 0.02 0.02 0.03 0.04 0.01 0.02 0.02 0.01 0.01 0.01 0.01 0.01 0.01 0.01 0.01 0.02 0.02 0.03 0.04
0.00 0.00 0.00 0.00 0.00 0.00 0.01 0.01 0.01 0.02 0.02 0.02 0.02 0.01 0.01 0.00 0.01 0.02 0.01 0.01 0.01 0.01 0.01 0.01 0.01 0.01 0.01 0.01 0.01 0.03 0.04 0.03 0.03 0.02 0.01 0.02 0.01 0.01 0.01 0.00 0.01 0.01 0.01 0.02 0.02 0.02 0.03 0.02 0.04
0.00 0.01 0.00 0.00 0.00 0.01 0.00 0.00 0.01 0.01 0.01 0.01 0.02 0.01 0.00 0.01 0.02 0.01 0.01 0.01 0.01 0.01 0.01 0.01 0.01 0.01 0.01 0.01 0.04 0.08 0.08 0.04 0.02 0.02 0.01 0.01 0.01 0.00 0.00 0.00 0.01 0.01 0.02 0.02 0.03 0.03 0.03 0.04 0.05
0.01 0.01 0.00 0.00 0.00 0.00 0.00 0.00 0.01 0.02 0.01 0.01 0.02 0.01 0.01 0.01 0.02 0.01 0.01 0.01 0.01 0.01 0.01 0.02 0.02 0.02 0.02 0.02 0.05 0.06 0.04 0.02 0.02 0.01 0.01 0.01 0.01 0.01 0.01 0.00 0.01 0.01 0.01 0.02 0.03 0.03 0.02 0.03 0.05
0.01 0.01 0.00 0.00 0.00 0.00 0.00 0.00 0.00 0.01 0.01 0.01 0.02 0.02 0.02 0.02 0.02 0.01 0.01 0.01 0.01 0.01 0.02 0.03 0.03 0.03 0.03 0.03 0.03 0.03 0.03 0.01 0.01 0.01 0.02 0.02 0.02 0.03 0.02 0.01 0.01 0.01 0.01 0.01 0.01 0.02 0.03 0.03 0.04
0.01 0.01 0.01 0.00 0.00 0.00 0.00 0.00 0.01 0.01 0.01 0.01 0.01 0.02 0.03 0.03 0.02 0.02 0.01 0.01 0.01 0.01 0.02 0.04 0.03 0.03 0.04 0.04 0.05 0.04 0.03 0.02 0.02 0.02 0.02 0.02 0.03 0.02 0.02 0.01 0.01 0.01 0.01 0.01 0.01 0.02 0.04 0.03 0.03
0.01 0.01 0.01 0.01 0.00 0.00 0.00 0.00 0.00 0.01 0.01 0.01 0.01 0.01 0.02 0.02 0.02 0.02 0.01 0.01 0.01 0.01 0.02 0.02 0.03 0.02 0.03 0.04 0.07 0.05 0.04 0.03 0.02 0.02 0.02 0.02 0.02 0.02 0.01 0.01 0.01 0.01 0.01 0.01 0.02 0.02 0.03 0.03 0.03
0.01 0.01 0.00 0.01 0.00 0.00 0.00 0.00 0.00 0.00 0.01 0.01 0.01 0.01 0.02 0.04 0.03 0.01 0.01 0.01 0.01 0.01 0.02 0.02 0.02 0.01 0.02 0.03 0.05 0.08 0.09 0.07 0.03 0.02 0.02 0.03 0.03 0.03 0.02 0.02 0.01 0.02 0.02 0.01 0.01 0.02 0.03 0.03 0.04
0.01 0.01 0.01 0.01 0.00 0.00 0.00 0.00 0.00 0.01 0.01 0.01 0.01 0.02 0.03 0.05 0.08 0.06 0.04 0.04 0.01 0.01 0.01 0.01 0.02 0.02 0.03 0.07 0.10 0.18 0.18 0.07 0.03 0.02 0.03 0.02 0.03 0.03 0.03 0.03 0.03 0.02 0.02 0.02 0.01 0.02 0.03 0.05 0.05
MSLP
1009.27 1010.10 1011.03 1011.93 1012.65 1013.10 1013.25 1013.11 1012.76 1012.32 1011.88 1011.53 1011.30 1011.15 1011.04 1010.88 1010.59 1010.14 1009.53 1008.83 1008.11 1007.48 1007.01 1006.75 1006.70 1006.80 1006.97 1007.12 1007.19 1007.12 1006.91 1006.62 1006.29 1005.99 1005.78 1005.67 1005.64 1005.67 1005.67 1005.61 1005.44 1005.14 1004.74 1004.27 1003.78 1003.34 1002.96 1002.67 1002.47
1009.68 1010.65 1011.66 1012.55 1013.20 1013.51 1013.46 1013.10 1012.52 1011.86 1011.23 1010.73 1010.39 1010.18 1010.04 1009.90 1009.67 1009.31 1008.82 1008.26 1007.69 1007.21 1006.87 1006.72 1006.75 1006.91 1007.10 1007.24 1007.28 1007.18 1006.95 1006.64 1006.30 1006.00 1005.79 1005.67 1005.62 1005.60 1005.54 1005.39 1005.11 1004.72 1004.23 1003.71 1003.21 1002.78 1002.45 1002.22 1002.07
1010.22 1011.28 1012.32 1013.17 1013.71 1013.87 1013.64 1013.09 1012.32 1011.48 1010.71 1010.08 1009.64 1009.36 1009.19 1009.05 1008.85 1008.55 1008.16 1007.71 1007.29 1006.95 1006.75 1006.72 1006.84 1007.04 1007.26 1007.40 1007.42 1007.29 1007.03 1006.68 1006.32 1006.01 1005.78 1005.64 1005.55 1005.47 1005.33 1005.09 1004.72 1004.25 1003.70 1003.16 1002.67 1002.28 1002.01 1001.85 1001.75
1010.83 1011.93 1012.95 1013.73 1014.15 1014.16 1013.78 1013.08 1012.19 1011.24 1010.37 1009.67 1009.16 1008.84 1008.63 1008.46 1008.26 1007.99 1007.67 1007.32 1007.00 1006.78 1006.71 1006.78 1006.97 1007.22 1007.44 1007.57 1007.55 1007.38 1007.08 1006.71 1006.33 1006.00 1005.75 1005.59 1005.46 1005.32 1005.12 1004.80 1004.36 1003.82 1003.24 1002.69 1002.22 1001.89 1001.69 1001.58 1001.48
1011.47 1012.55 1013.49 1014.15 1014.45 1014.33 1013.84 1013.06 1012.11 1011.13 1010.25 1009.53 1009.01 1008.65 1008.41 1008.21 1007.99 1007.73 1007.44 1007.14 1006.91 1006.78 1006.78 1006.92 1007.16 1007.42 1007.62 1007.72 1007.65 1007.44 1007.10 1006.70 1006.30 1005.96 1005.71 1005.53 1005.39 1005.22 1004.96 1004.59 1004.10 1003.52 1002.92 1002.37 1001.94 1001.64 1001.48 1001.38 1001.23
1012.07 1013.07 1013.88 1014.40 1014.55 1014.33 1013.77 1012.97 1012.04 1011.11 1010.28 1009.62 1009.13 1008.78 1008.52 1008.29 1008.05 1007.77 1007.48 1007.21 1007.01 1006.93 1006.97 1007.14 1007.37 1007.61 1007.78 1007.81 1007.70 1007.43 1007.06 1006.64 1006.25 1005.92 1005.69 1005.52 1005.38 1005.20 1004.93 1004.52 1003.99 1003.39 1002.78 1002.23 1001.82 1001.54 1001.38 1001.23 1000.99
1012.57 1013.44 1014.08 1014.42 1014.43 1014.12 1013.53 1012.76 1011.91 1011.10 1010.40 1009.84 1009.42 1009.11 1008.86 1008.62 1008.35 1008.05 1007.74 1007.47 1007.27 1007.19 1007.23 1007.38 1007.58 1007.77 1007.87 1007.85 1007.67 1007.37 1006.97 1006.56 1006.19 1005.91 1005.71 1005.58 1005.47 1005.30 1005.02 1004.60 1004.06 1003.44 1002.82 1002.27 1001.84 1001.56 1001.36 1001.14 1000.75
1012.95 1013.63 1014.08 1014.23 1014.10 1013.70 1013.10 1012.40 1011.68 1011.02 1010.48 1010.06 1009.75 1009.51 1009.28 1009.04 1008.75 1008.42 1008.09 1007.79 1007.58 1007.48 1007.49 1007.59 1007.74 1007.86 1007.90 1007.81 1007.60 1007.27 1006.89 1006.50 1006.18 1005.94 1005.80 1005.72 1005.64 1005.49 1005.22 1004.80 1004.25 1003.62 1002.98 1002.41 1001.97 1001.65 1001.39 1001.08 1000.55
1013.21 1013.69 1013.91 1013.87 1013.59 1013.12 1012.53 1011.90 1011.32 1010.82 1010.45 1010.18 1009.99 1009.82 1009.64 1009.40 1009.11 1008.76 1008.41 1008.09 1007.84 1007.71 1007.68 1007.73 1007.81 1007.87 1007.86 1007.74 1007.51 1007.19 1006.83 1006.49 1006.23 1006.05 1005.96 1005.93 1005.88 1005.75 1005.48 1005.06 1004.50 1003.85 1003.20 1002.61 1002.13 1001.76 1001.45 1001.06 1000.44
1013.38 1013.65 1013.66 1013.42 1013.00 1012.46 1011.87 1011.32 1010.85 1010.51 1010.28 1010.15 1010.06 1009.97 1009.83 1009.61 1009.31 1008.96 1008.59 1008.25 1007.98 1007.81 1007.74 1007.75 1007.79 1007.81 1007.77 1007.64 1007.42 1007.14 1006.83 1006.55 1006.35 1006.23 1006.18 1006.17 1006.14 1006.01 1005.75 1005.32 1004.75 1004.09 1003.42 1002.80 1002.29 1001.88 1001.52 1001.08 1000.42
1013.50 1013.59 1013.39 1012.99 1012.44 1011.83 1011.23 1010.73 1010.35 1010.12 1010.00 1009.97 1009.96 1009.92 1009.81 1009.61 1009.32 1008.96 1008.59 1008.24 1007.96 1007.77 1007.67 1007.65 1007.67 1007.68 1007.65 1007.54 1007.37 1007.14 1006.90 1006.68 1006.53 1006.44 1006.42 1006.41 1006.37 1006.24 1005.96 1005.53 1004.95 1004.28 1003.59 1002.95 1002.42 1001.98 1001.59 1001.16 1000.53
1013.66 1013.58 1013.22 1012.67 1012.01 1011.33 1010.73 1010.24 1009.92 1009.75 1009.69 1009.71 1009.73 1009.72 1009.63 1009.43 1009.15 1008.79 1008.42 1008.07 1007.79 1007.59 1007.49 1007.46 1007.48 1007.51 1007.51 1007.45 1007.34 1007.19 1007.02 1006.86 1006.74 1006.67 1006.65 1006.62 1006.55 1006.39 1006.10 1005.66 1005.08 1004.42 1003.73 1003.09 1002.53 1002.08 1001.69 1001.28 1000.74
1013.89 1013.68 1013.19 1012.53 1011.79 1011.07 1010.44 1009.96 1009.65 1009.49 1009.44 1009.46 1009.48 1009.46 1009.35 1009.15 1008.87 1008.53 1008.16 1007.82 1007.54 1007.35 1007.25 1007.22 1007.26 1007.32 1007.37 1007.39 1007.35 1007.28 1007.18 1007.06 1006.97 1006.90 1006.84 1006.78 1006.68 1006.49 1006.19 1005.75 1005.19 1004.55 1003.88 1003.24 1002.67 1002.21 1001.83 1001.46 1001.02
1014.22 1013.91 1013.34 1012.61 1011.83 1011.08 1010.44 1009.94 1009.61 1009.43 1009.35 1009.32 1009.29 1009.23 1009.10 1008.88 1008.60 1008.26 1007.91 1007.58 1007.31 1007.11 1007.01 1007.00 1007.06 1007.16 1007.27 1007.35 1007.40 1007.40 1007.35 1007.28 1007.19 1007.11 1007.02 1006.92 1006.78 1006.57 1006.27 1005.85 1005.33 1004.73 1004.09 1003.47 1002.91 1002.43 1002.04 1001.70 1001.34
1014.63 1014.26 1013.65 1012.90 1012.11 1011.36 1010.71 1010.20 1009.84 1009.60 1009.45 1009.35 1009.25 1009.12 1008.95 1008.71 1008.42 1008.09 1007.75 1007.43 1007.16 1006.97 1006.86 1006.86 1006.93 1007.06 1007.22 1007.37 1007.48 1007.55 1007.56 1007.52 1007.44 1007.34 1007.22 1007.08 1006.92 1006.71 1006.43 1006.05 1005.59 1005.05 1004.46 1003.85 1003.29 1002.79 1002.36 1002.01 1001.68
1015.06 1014.66 1014.05 1013.32 1012.57 1011.85 1011.22 1010.71 1010.30 1009.99 1009.75 1009.55 1009.37 1009.17 1008.95 1008.68 1008.39 1008.07 1007.74 1007.43 1007.17 1006.97 1006.85 1006.84 1006.91 1007.06 1007.26 1007.46 1007.64 1007.76 1007.82 1007.82 1007.75 1007.64 1007.50 1007.35 1007.18 1006.98 1006.74 1006.42 1006.03 1005.56 1005.02 1004.44 1003.86 1003.32 1002.84 1002.43 1002.08
1015.45 1015.05 1014.48 1013.82 1013.14 1012.49 1011.91 1011.39 1010.94 1010.55 1010.22 1009.91 1009.63 1009.35 1009.08 1008.80 1008.51 1008.21 1007.91 1007.61 1007.35 1007.14 1007.02 1006.98 1007.05 1007.21 1007.42 1007.66 1007.89 1008.07 1008.19 1008.22 1008.18 1008.07 1007.94 1007.79 1007.63 1007.46 1007.26 1007.01 1006.69 1006.29 1005.80 1005.24 1004.65 1004.05 1003.50 1003.00 1002.58
1015.74 1015.36 1014.87 1014.33 1013.77 1013.22 1012.69 1012.18 1011.69 1011.22 1010.77 1010.35 1009.96 1009.62 1009.30 1009.02 1008.75 1008.48 1008.22 1007.95 1007.71 1007.50 1007.36 1007.31 1007.36 1007.51 1007.74 1008.01 1008.29 1008.53 1008.70 1008.78 1008.77 1008.70 1008.58 1008.44 1008.30 1008.16 1008.00 1007.81 1007.55 1007.21 1006.77 1006.23 1005.63 1004.98 1004.35 1003.75 1003.22
1015.86 1015.56 1015.20 1014.81 1014.40 1013.97 1013.51 1013.02 1012.48 1011.92 1011.35 1010.81 1010.32 1009.91 1009.56 1009.28 1009.05 1008.84 1008.64 1008.43 1008.21 1008.02 1007.87 1007.80 1007.84 1007.99 1008.23 1008.53 1008.85 1009.15 1009.38 1009.52 1009.57 1009.53 1009.44 1009.32 1009.20 1009.07 1008.95 1008.79 1008.57 1008.27 1007.87 1007.35 1006.74 1006.07 1005.37 1004.69 1004.07
1015.82 1015.64 1015.45 1015.25 1015.02 1014.73 1014.35 1013.87 1013.28 1012.61 1011.92 1011.25 1010.66 1010.17 1009.80 1009.55 1009.37 1009.24 1009.12 1008.98 1008.82 1008.66 1008.53 1008.46 1008.49 1008.63 1008.88 1009.21 1009.58 1009.93 1010.23 1010.43 1010.54 1010.55 1010.49 1010.39 1010.26 1010.14 1010.01 1009.86 1009.66 1009.38 1009.00 1008.51 1007.91 1007.24 1006.53 1005.81 1005.13
1015.65 1015.64 1015.66 1015.69 1015.66 1015.51 1015.20 1014.72 1014.06 1013.28 1012.45 1011.64 1010.94 1010.39 1010.01 1009.79 1009.69 1009.65 1009.63 1009.59 1009.51 1009.41 1009.31 1009.25 1009.28 1009.43 1009.68 1010.03 1010.43 1010.84 1011.20 1011.47 1011.63 1011.68 1011.64 1011.55 1011.41 1011.27 1011.11 1010.94 1010.72 1010.44 1010.08 1009.61 1009.05 1008.42 1007.73 1007.03 1006.35
1015.40 1015.60 1015.87 1016.14 1016.31 1016.31 1016.06 1015.56 1014.82 1013.92 1012.94 1012.00 1011.20 1010.59 1010.20 1010.02 1010.01 1010.08 1010.18 1010.25 1010.27 1010.23 1010.17 1010.14 1010.18 1010.32 1010.58 1010.94 1011.37 1011.81 1012.22 1012.54 1012.74 1012.83 1012.81 1012.70 1012.54 1012.35 1012.15 1011.92 1011.67 1011.38 1011.02 1010.59 1010.08 1009.51 1008.90 1008.27 1007.64
1015.15 1015.59 1016.13 1016.63 1016.99 1017.11 1016.91 1016.39 1015.56 1014.53 1013.42 1012.36 1011.46 1010.80 1010.42 1010.29 1010.36 1010.55 1010.77 1010.96 1011.07 1011.11 1011.10 1011.09 1011.13 1011.27 1011.52 1011.88 1012.31 1012.78 1013.21 1013.56 1013.80 1013.90 1013.88 1013.76 1013.57 1013.32 1013.06 1012.77 1012.47 1012.15 1011.79 1011.39 1010.94 1010.45 1009.94 1009.41 1008.87
1014.96 1015.65 1016.43 1017.15 1017.67 1017.89 1017.72 1017.15 1016.25 1015.11 1013.88 1012.72 1011.76 1011.08 1010.72 1010.65 1010.81 1011.10 1011.43 1011.72 1011.93 1012.03 1012.06 1012.07 1012.11 1012.23 1012.46 1012.80 1013.21 1013.67 1014.10 1014.47 1014.71 1014.82 1014.80 1014.66 1014.43 1014.14 1013.81 1013.47 1013.12 1012.76 1012.40 1012.02 1011.63 1011.22 1010.81 1010.38 1009.95
1014.87 1015.78 1016.75 1017.64 1018.29 1018.56 1018.40 1017.80 1016.83 1015.61 1014.31 1013.11 1012.12 1011.44 1011.12 1011.11 1011.35 1011.74 1012.17 1012.54 1012.82 1012.98 1013.04 1013.05 1013.08 1013.17 1013.36 1013.65 1014.03 1014.45 1014.86 1015.21 1015.45 1015.56 1015.53 1015.38 1015.13 1014.80 1014.43 1014.04 1013.65 1013.27 1012.89 1012.53 1012.17 1011.82 1011.48 1011.13 1010.78
1014.88 1015.94 1017.05 1018.04 1018.74 1019.04 1018.87 1018.24 1017.23 1015.99 1014.68 1013.47 1012.51 1011.88 1011.61 1011.68 1012.00 1012.46 1012.96 1013.40 1013.72 1013.92 1013.99 1014.00 1014.01 1014.06 1014.20 1014.43 1014.76 1015.12 1015.49 1015.81 1016.03 1016.13 1016.10 1015.94 1015.68 1015.34 1014.95 1014.54 1014.12 1013.71 1013.32 1012.96 1012.61 1012.29 1011.98 1011.67 1011.36
1014.96 1016.09 1017.25 1018.25 1018.94 1019.22 1019.02 1018.38 1017.38 1016.16 1014.90 1013.77 1012.89 1012.35 1012.17 1012.31 1012.70 1013.23 1013.77 1014.25 1014.60 1014.81 1014.89 1014.89 1014.87 1014.89 1014.98 1015.15 1015.40 1015.71 1016.02 1016.30 1016.49 1016.57 1016.54 1016.39 1016.14 1015.80 1015.42 1015.00 1014.58 1014.15 1013.75 1013.37 1013.01 1012.67 1012.35 1012.03 1011.70
1015.06 1016.17 1017.27 1018.20 1018.82 1019.03 1018.79 1018.15 1017.20 1016.07 1014.93 1013.93 1013.19 1012.79 1012.71 1012.95 1013.40 1013.96 1014.53 1015.03 1015.39 1015.60 1015.69 1015.69 1015.66 1015.65 1015.70 1015.82 1016.01 1016.25 1016.50 1016.73 1016.88 1016.95 1016.92 1016.78 1016.55 1016.24 1015.87 1015.47 1015.05 1014.62 1014.20 1013.79 1013.39 1013.01 1012.64 1012.27 1011.89
1015.12 1016.11 1017.06 1017.83 1018.31 1018.42 1018.15 1017.53 1016.66 1015.67 1014.71 1013.91 1013.36 1013.11 1013.17 1013.49 1014.00 1014.59 1015.17 1015.66 1016.03 1016.26 1016.36 1016.37 1016.35 1016.33 1016.36 1016.45 1016.60 1016.78 1016.98 1017.15 1017.27 1017.32 1017.28 1017.15 1016.94 1016.66 1016.33 1015.95 1015.54 1015.11 1014.67 1014.23 1013.79 1013.35 1012.90 1012.46 1012.00
1015.10 1015.88 1016.60 1017.15 1017.44 1017.43 1017.12 1016.54 1015.80 1014.99 1014.25 1013.68 1013.34 1013.28 1013.48 1013.89 1014.44 1015.04 1015.62 1016.12 1016.49 1016.73 1016.87 1016.92 1016.93 1016.95 1016.99 1017.07 1017.19 1017.34 1017.48 1017.61 1017.68 1017.70 1017.65 1017.53 1017.34 1017.08 1016.78 1016.42 1016.02 1015.60 1015.14 1014.67 1014.18 1013.67 1013.16 1012.64 1012.10
Thickness
5811 5809 5805 5795 5778 5762 5759 5773 5783 5785 5787 5795 5797 5791 5784 5778 5772 5770 5795 5804 5804 5803 5803 5802 5803 5802 5801 5799 5797 5796 5795 5793 5791 5789 5788 5787 5787 5786 5785 5784 5784 5784 5783 5782 5782 5781 5780 5779 5778
5812 5808 5800 5788 5766 5749 5759 5778 5782 5788 5795 5800 5798 5794 5787 5785 5791 5791 5797 5802 5804 5803 5802 5802 5802 5801 5799 5797 5796 5795 5794 5793 5791 5789 5787 5786 5786 5784 5784 5784 5783 5783 5782 5781 5781 5780 5779 5778 5777
5813 5809 5793 5779 5765 5756 5765 5783 5787 5796 5802 5801 5795 5795 5789 5786 5793 5795 5800 5803 5803 5801 5800 5800 5800 5799 5797 5795 5794 5794 5793 5792 5790 5788 5786 5785 5785 5784 5783 5782 5782 5781 5781 5780 5780 5779 5779 5778 5777
5810 5800 5789 5773 5766 5775 5781 5789 5794 5795 5799 5802 5796 5788 5793 5799 5799 5801 5803 5803 5800 5799 5799 5800 5800 5798 5795 5794 5793 5792 5793 5792 5790 5787 5785 5784 5784 5783 5782 5782 5782 5781 5780 5779 5779 5778 5778 5777 5776
5808 5792 5776 5765 5771 5784 5793 5798 5799 5793 5794 5797 5794 5785 5787 5799 5805 5804 5803 5801 5798 5797 5798 5799 5799 5796 5794 5792 5791 5791 5791 5791 5789 5786 5785 5783 5782 5782 5781 5781 5781 5780 5779 5778 5778 5777 5776 5776 5775
5797 5787 5765 5758 5772 5788 5797 5802 5800 5795 5796 5798 5794 5785 5786 5799 5801 5801 5801 5799 5798 5796 5796 5796 5796 5794 5793 5791 5790 5789 5788 5787 5787 5786 5784 5783 5782 5781 5781 5780 5779 5779 5778 5777 5777 5776 5776 5775 5774
5792 5780 5768 5769 5773 5784 5798 5806 5800 5796 5795 5797 5798 5785 5787 5795 5800 5801 5800 5798 5796 5795 5794 5793 5793 5792 5791 5790 5789 5788 5787 5786 5785 5784 5783 5782 5781 5780 5780 5779 5779 5778 5777 5777 5776 5776 5775 5774 5774
5802 5784 5773 5772 5775 5784 5803 5808 5808 5802 5799 5808 5804 5786 5783 5794 5800 5799 5797 5795 5794 5793 5792 5792 5791 5790 5789 5789 5789 5787 5786 5785 5784 5783 5782 5781 5780 5779 5779 5778 5777 5777 5776 5776 5776 5775 5775 5774 5773
5807 5779 5769 5778 5782 5790 5805 5804 5808 5813 5806 5805 5803 5798 5798 5800 5799 5794 5791 5790 5790 5790 5790 5790 5789 5789 5788 5788 5787 5786 5785 5784 5782 5781 5780 5780 5779 5778 5777 5776 5776 5776 5776 5775 5775 5775 5774 5773 5772
5798 5775 5784 5799 5801 5800 5804 5804 5805 5804 5797 5796 5796 5800 5803 5799 5794 5789 5787 5786 5786 5787 5788 5789 5788 5788 5787 5786 5786 5784 5783 5782 5781 5780 5779 5778 5777 5777 5776 5775 5775 5775 5775 5774 5775 5774 5773 5772 5771
5799 5789 5801 5808 5812 5810 5805 5805 5808 5799 5791 5794 5793 5795 5797 5795 5791 5788 5787 5787 5787 5788 5788 5789 5788 5787 5786 5785 5784 5783 5782 5781 5780 5779 5778 5777 5776 5775 5774 5773 5773 5773 5773 5773 5773 5773 5772 5770 5769
5801 5805 5810 5813 5817 5813 5808 5807 5804 5800 5800 5807 5805 5802 5798 5793 5790 5788 5787 5788 5788 5788 5788 5788 5788 5786 5785 5784 5783 5782 5781 5780 5778 5778 5777 5776 5774 5773 5772 5772 5772 5772 5771 5771 5771 5771 5770 5768 5767
5804 5807 5815 5818 5818 5816 5812 5806 5804 5802 5808 5810 5806 5801 5796 5794 5792 5791 5791 5789 5788 5787 5788 5788 5788 5786 5785 5783 5782 5781 5780 5779 5778 5777 5776 5775 5774 5772 5771 5771 5771 5770 5770 5769 5769 5769 5768 5766 5765
5809 5810 5812 5815 5817 5817 5808 5805 5803 5803 5809 5805 5802 5798 5797 5795 5793 5791 5790 5788 5788 5788 5788 5788 5787 5786 5785 5782 5781 5780 5779 5778 5777 5776 5775 5774 5773 5772 5771 5770 5769 5769 5769 5768 5767 5767 5766 5764 5763
5812 5804 5805 5810 5812 5812 5808 5794 5798 5806 5806 5800 5798 5798 5796 5795 5794 5793 5792 5790 5789 5788 5788 5788 5787 5786 5784 5782 5780 5779 5778 5777 5776 5775 5774 5773 5772 5771 5770 5769 5768 5768 5768 5767 5766 5765 5764 5762 5761
5802 5791 5784 5801 5809 5810 5799 5780 5799 5808 5803 5796 5796 5796 5795 5794 5795 5795 5795 5793 5791 5789 5788 5788 5788 5785 5783 5781 5780 5778 5777 5776 5775 5774 5773 5772 5771 5770 5769 5768 5767 5767 5767 5766 5764 5763 5761 5759 5758
5782 5773 5778 5792 5806 5805 5795 5784 5799 5806 5801 5795 5794 5794 5793 5792 5793 5795 5796 5795 5792 5790 5788 5786 5785 5784 5782 5781 5779 5777 5776 5774 5774 5773 5772 5771 5770 5769 5768 5767 5766 5766 5765 5764 5763 5761 5759 5757 5756
5772 5774 5778 5782 5799 5798 5788 5786 5797 5802 5799 5794 5794 5793 5793 5792 5793 5795 5795 5794 5793 5790 5788 5786 5784 5783 5782 5780 5777 5776 5774 5773 5772 5771 5770 5769 5769 5768 5766 5765 5764 5764 5762 5761 5760 5758 5757 5755 5754
5789 5781 5777 5786 5801 5793 5784 5785 5792 5798 5796 5793 5791 5791 5792 5793 5796 5795 5794 5793 5791 5788 5786 5785 5783 5781 5779 5777 5774 5771 5769 5769 5768 5769 5768 5768 5767 5766 5765 5763 5762 5761 5760 5758 5757 5755 5753 5751 5751
5788 5779 5779 5788 5799 5792 5781 5782 5792 5796 5795 5795 5793 5791 5793 5793 5793 5793 5792 5790 5789 5787 5785 5784 5782 5781 5779 5776 5773 5771 5768 5766 5766 5766 5766 5766 5765 5764 5763 5761 5760 5759 5757 5756 5754 5752 5750 5748 5747
5785 5780 5781 5782 5789 5789 5781 5775 5784 5794 5797 5798 5797 5796 5796 5794 5792 5791 5790 5788 5787 5786 5784 5783 5781 5780 5778 5776 5773 5770 5766 5764 5763 5762 5762 5763 5762 5762 5761 5759 5758 5757 5755 5753 5752 5750 5747 5744 5743
5778 5794 5792 5786 5772 5760 5769 5749 5774 5784 5787 5791 5794 5795 5795 5796 5794 5792 5790 5787 5786 5786 5785 5782 5780 5778 5776 5775 5771 5767 5763 5759 5759 5759 5759 5760 5759 5759 5758 5757 5756 5754 5753 5751 5749 5747 5745 5742 5738
5791 5800 5790 5782 5769 5757 5760 5750 5763 5779 5779 5787 5793 5795 5796 5796 5795 5792 5791 5789 5787 5785 5783 5780 5778 5776 5774 5773 5770 5766 5761 5760 5759 5758 5757 5756 5756 5756 5755 5754 5753 5751 5749 5747 5746 5744 5741 5739 5735
5801 5789 5777 5764 5755 5741 5754 5748 5756 5772 5784 5790 5795 5797 5797 5796 5795 5793 5792 5789 5786 5784 5781 5779 5776 5773 5772 5770 5768 5765 5761 5759 5756 5754 5753 5752 5752 5752 5751 5750 5749 5748 5745 5744 5742 5740 5738 5735 5732
5789 5764 5741 5737 5727 5733 5753 5750 5760 5790 5798 5798 5796 5797 5797 5795 5793 5790 5788 5786 5784 5781 5779 5777 5775 5771 5769 5767 5765 5763 5760 5757 5754 5751 5749 5748 5747 5747 5746 5746 5745 5744 5742 5740 5738 5736 5733 5731 5728
5778 5767 5739 5727 5723 5732 5748 5748 5775 5799 5803 5803 5800 5798 5796 5793 5791 5789 5788 5786 5784 5782 5779 5775 5772 5769 5767 5764 5762 5760 5757 5754 5752 5749 5748 5746 5744 5743 5743 5742 5741 5739 5738 5736 5734 5731 5729 5727 5724
5773 5762 5764 5740 5734 5730 5738 5754 5779 5799 5797 5796 5795 5794 5792 5791 5789 5788 5787 5785 5784 5781 5778 5775 5771 5767 5765 5762 5759 5756 5753 5751 5749 5747 5745 5744 5742 5741 5740 5738 5736 5735 5733 5731 5729 5726 5723 5722 5719
5783 5767 5748 5735 5723 5721 5736 5746 5757 5781 5786 5789 5789 5789 5789 5789 5787 5786 5785 5784 5782 5780 5777 5774 5770 5765 5762 5760 5756 5754 5751 5748 5745 5743 5741 5740 5738 5737 5735 5733 5731 5730 5728 5726 5723 5721 5718 5716 5714
5769 5760 5747 5733 5733 5720 5720 5742 5780 5783 5787 5787 5789 5789 5788 5786 5784 5783 5782 5782 5780 5777 5774 5771 5767 5763 5760 5756 5753 5750 5748 5745 5742 5739 5737 5736 5734 5732 5730 5728 5726 5724 5722 5720 5718 5715 5713 5710 5708
5776 5765 5750 5738 5730 5725 5723 5744 5791 5789 5790 5789 5788 5788 5788 5786 5784 5782 5780 5778 5776 5773 5770 5768 5765 5761 5758 5754 5751 5748 5745 5742 5739 5736 5733 5732 5730 5727 5725 5723 5721 5719 5717 5714 5712 5709 5707 5705 5702